This is the latest recevied weather packets stored in our database for station/object WZ9ZZZ-1. If no packets are shown the sender has not sent any weather packets the latest 1 day(s).
| Time | Temp. | Humidity | Pressure | Rain* | Wind** | Luminosity | Snow |
|---|---|---|---|---|---|---|---|
| 1778074894 | 25.56° C | 95% | 1013.6 hPa | 0 mm | - | 106 W/m² | - |
| 1778073986 | 25° C | 95% | 1013.6 hPa | 0 mm | - | 78 W/m² | - |
| 1778073380 | 25° C | 95% | 1013.6 hPa | 0 mm | - | 41 W/m² | - |
| 1778073076 | 25° C | 95% | 1013.6 hPa | 0 mm | - | 37 W/m² | - |
| 1778072169 | 25° C | 95% | 1013.5 hPa | 0 mm | - | 27 W/m² | - |
| 1778070959 | 24.44° C | 95% | 1013.2 hPa | 0 mm | - | 12 W/m² | - |
| 1778069749 | 24.44° C | 95% | 1013.3 hPa | 0 mm | - | 7 W/m² | - |
| 1778068840 | 24.44° C | 95% | 1013.1 hPa | 0 mm | - | 5 W/m² | - |
| 1778068538 | 24.44° C | 95% | 1012.9 hPa | 0 mm | - | 3 W/m² | - |
| 1778067632 | 24.44° C | 95% | 1012.7 hPa | 0 mm | - | 0 W/m² | - |
| 1778066420 | 24.44° C | 95% | 1012.3 hPa | 0 mm | - | 0 W/m² | - |
| 1778065815 | 24.44° C | 95% | 1012.3 hPa | 0 mm | - | 0 W/m² | - |
| 1778065513 | 24.44° C | 95% | 1012.2 hPa | 0 mm | - | 0 W/m² | - |
| 1778065210 | 24.44° C | 95% | 1012.4 hPa | 0 mm | - | 0 W/m² | - |
| 1778064301 | 24.44° C | 95% | 1012.7 hPa | 0 mm | - | 0 W/m² | - |
| 1778063999 | 24.44° C | 95% | 1012.3 hPa | 0 mm | - | 0 W/m² | - |
| 1778063392 | 24.44° C | 95% | 1012.2 hPa | 0 mm | - | 0 W/m² | - |
| 1778062484 | 24.44° C | 95% | 1012.2 hPa | 0 mm | - | 0 W/m² | - |
| 1778061276 | 24.44° C | 94% | 1012.1 hPa | 0 mm | - | 0 W/m² | - |
| 1778060065 | 24.44° C | 94% | 1012.1 hPa | 0 mm | - | 0 W/m² | - |
| 1778059763 | 24.44° C | 94% | 1012.2 hPa | 0 mm | - | 0 W/m² | - |
| 1778059461 | 24.44° C | 94% | 1012.1 hPa | 0 mm | - | 0 W/m² | - |
| 1778059157 | 24.44° C | 94% | 1012 hPa | 0 mm | - | 0 W/m² | - |
| 1778058855 | 25° C | 94% | 1012.2 hPa | 0 mm | - | 0 W/m² | - |
| 1778058552 | 25° C | 94% | 1012.4 hPa | 0 mm | - | 0 W/m² | - |
* Rain latest hour (hover to see other rain measurements)
** Current wind speed in m/s (hover to see current wind gust speed)